Volver al catálogo

NIMBUS 2 DEB

ActivoLEO
NORAD 28977·DEBRIS·🇺🇸 United States

Lanzado May 15, 1966 desde Vandenberg Space Force Base

Loading…

Próximos Pases (próximas 24 horas)

TLE

ActualizadoSource: Space-Track

Época: Sep 13, 2026, 21:07 UTC

1 28977U 66040AN  26256.88012714  .00001194  00000-0  18317-2 0  9998
2 28977 100.4634 224.2783 0044766 203.7248 183.9590 13.53696356 24776

Sigue NIMBUS 2 DEB en tiempo real con AllMySat

Download on the App Store